Time,TemperatureF,DewpointF,PressureIn,WindDirection,WindDirectionDegrees,WindSpeedMPH,WindSpeedGustMPH,Humidity,HourlyPrecipIn,Conditions,Clouds,dailyrainin,SoftwareType,DateUTC
2013-02-04 00:03:00,52.0,48.0,30.14,NW,304,0.0,0.0,85,0.00,,,0.00,,2013-02-04 05:03:00,
2013-02-04 00:11:00,52.0,48.0,30.14,NW,304,0.0,0.0,85,0.00,,,0.00,,2013-02-04 05:11:00,
2013-02-04 00:22:00,52.0,48.0,30.13,NW,304,0.0,0.0,85,0.00,,,0.00,,2013-02-04 05:22:00,
2013-02-04 00:33:00,51.0,47.0,30.13,NW,304,0.0,0.0,85,0.00,,,0.00,,2013-02-04 05:33:00,
2013-02-04 00:42:00,51.0,47.0,30.13,NW,304,0.0,0.0,85,0.00,,,0.00,,2013-02-04 05:42:00,
2013-02-04 00:52:00,50.0,46.0,30.12,NW,304,0.0,0.0,85,0.00,,,0.00,,2013-02-04 05:52:00,
2013-02-04 01:02:00,50.0,46.0,30.12,NW,304,0.0,0.0,86,0.00,,,0.00,,2013-02-04 06:02:00,
2013-02-04 01:11:00,50.0,46.0,30.12,NW,304,0.0,0.0,86,0.00,,,0.00,,2013-02-04 06:11:00,
2013-02-04 01:21:00,50.0,46.0,30.12,NW,304,0.0,0.0,86,0.00,,,0.00,,2013-02-04 06:21:00,
2013-02-04 01:32:00,49.0,45.0,30.12,NW,304,0.0,0.0,86,0.00,,,0.00,,2013-02-04 06:32:00,
2013-02-04 01:42:00,49.0,45.0,30.12,NW,304,0.0,0.0,86,0.00,,,0.00,,2013-02-04 06:42:00,
2013-02-04 01:52:00,50.0,46.0,30.12,NW,304,0.0,0.0,86,0.00,,,0.00,,2013-02-04 06:52:00,
2013-02-04 02:02:00,49.0,45.0,30.11,NW,304,0.0,0.0,86,0.00,,,0.00,,2013-02-04 07:02:00,
2013-02-04 02:11:00,49.0,45.0,30.12,NW,304,0.0,0.0,86,0.00,,,0.00,,2013-02-04 07:11:00,
2013-02-04 02:21:00,49.0,45.0,30.12,NW,304,0.0,0.0,86,0.00,,,0.00,,2013-02-04 07:21:00,
2013-02-04 02:32:00,50.0,46.0,30.11,NW,304,0.0,0.0,86,0.00,,,0.00,,2013-02-04 07:32:00,
2013-02-04 02:42:00,50.0,46.0,30.11,NW,304,0.0,0.0,86,0.00,,,0.00,,2013-02-04 07:42:00,
2013-02-04 02:52:00,51.0,47.0,30.11,NW,304,0.0,0.0,86,0.00,,,0.00,,2013-02-04 07:52:00,
2013-02-04 03:01:00,50.0,46.0,30.12,NW,304,0.0,0.0,86,0.00,,,0.00,,2013-02-04 08:01:00,
2013-02-04 03:11:00,50.0,46.0,30.12,NW,304,0.0,0.0,86,0.00,,,0.00,,2013-02-04 08:11:00,
2013-02-04 03:21:00,48.0,44.0,30.12,NW,304,0.0,0.0,86,0.00,,,0.00,,2013-02-04 08:21:00,
2013-02-04 03:32:00,48.0,44.0,30.12,NW,304,0.0,0.0,87,0.00,,,0.00,,2013-02-04 08:32:00,
2013-02-04 03:42:00,48.0,44.0,30.12,NW,304,0.0,0.0,87,0.00,,,0.00,,2013-02-04 08:42:00,
2013-02-04 03:52:00,47.0,43.0,30.12,NW,304,0.0,0.0,87,0.00,,,0.00,,2013-02-04 08:52:00,
2013-02-04 04:02:00,46.0,42.0,30.12,NW,304,0.0,0.0,87,0.00,,,0.00,,2013-02-04 09:02:00,
2013-02-04 04:11:00,46.0,42.0,30.12,NW,304,0.0,0.0,87,0.00,,,0.00,,2013-02-04 09:11:00,
2013-02-04 04:21:00,46.0,42.0,30.12,NW,304,0.0,0.0,87,0.00,,,0.00,,2013-02-04 09:21:00,
2013-02-04 04:32:00,47.0,43.0,30.12,NW,304,0.0,0.0,87,0.00,,,0.00,,2013-02-04 09:32:00,
2013-02-04 04:42:00,47.0,43.0,30.12,NW,304,0.0,0.0,87,0.00,,,0.00,,2013-02-04 09:42:00,
2013-02-04 04:52:00,47.0,43.0,30.11,NW,305,0.0,0.0,87,0.00,,,0.00,,2013-02-04 09:52:00,
2013-02-04 05:01:00,47.0,43.0,30.11,North,3,0.0,0.0,87,0.00,,,0.00,,2013-02-04 10:01:00,
2013-02-04 05:11:00,47.0,43.0,30.11,North,3,0.0,0.0,87,0.00,,,0.00,,2013-02-04 10:11:00,
2013-02-04 05:21:00,47.0,43.0,30.12,North,4,0.0,0.0,87,0.00,,,0.00,,2013-02-04 10:21:00,
2013-02-04 05:32:00,46.0,42.0,30.12,North,4,0.0,0.0,87,0.00,,,0.00,,2013-02-04 10:32:00,
2013-02-04 05:42:00,46.0,42.0,30.12,North,4,0.0,0.0,87,0.00,,,0.00,,2013-02-04 10:42:00,
2013-02-04 05:52:00,46.0,42.0,30.13,North,4,0.0,0.0,87,0.00,,,0.00,,2013-02-04 10:52:00,
2013-02-04 06:02:00,45.0,41.0,30.13,North,3,0.0,0.0,87,0.00,,,0.00,,2013-02-04 11:02:00,
2013-02-04 06:11:00,45.0,41.0,30.13,North,3,0.0,0.0,87,0.00,,,0.00,,2013-02-04 11:11:00,
2013-02-04 06:22:00,45.0,41.0,30.13,North,4,0.0,0.0,87,0.00,,,0.00,,2013-02-04 11:22:00,
2013-02-04 06:32:00,44.0,40.0,30.13,North,3,0.0,0.0,87,0.00,,,0.00,,2013-02-04 11:32:00,
2013-02-04 06:42:00,44.0,40.0,30.13,North,3,0.0,0.0,87,0.00,,,0.00,,2013-02-04 11:42:00,
2013-02-04 06:52:00,44.0,40.0,30.14,North,4,0.0,0.0,87,0.00,,,0.00,,2013-02-04 11:52:00,
2013-02-04 07:02:00,43.0,39.0,30.14,North,4,0.0,0.0,87,0.00,,,0.00,,2013-02-04 12:02:00,
2013-02-04 07:12:00,43.0,39.0,30.14,North,4,0.0,0.0,87,0.00,,,0.00,,2013-02-04 12:12:00,
2013-02-04 07:22:00,43.0,39.0,30.14,North,4,0.0,0.0,87,0.00,,,0.00,,2013-02-04 12:22:00,
2013-02-04 07:32:00,42.0,38.0,30.14,North,3,0.0,0.0,87,0.00,,,0.00,,2013-02-04 12:32:00,
2013-02-04 07:42:00,42.0,38.0,30.14,North,3,0.0,0.0,87,0.00,,,0.00,,2013-02-04 12:42:00,
2013-02-04 07:53:00,42.0,38.0,30.14,North,3,0.0,0.0,87,0.00,,,0.00,,2013-02-04 12:53:00,
2013-02-04 08:02:00,43.0,40.0,30.15,North,3,0.0,0.0,88,0.00,,,0.00,,2013-02-04 13:02:00,
2013-02-04 08:12:00,45.0,42.0,30.15,North,3,0.0,0.0,88,0.00,,,0.00,,2013-02-04 13:12:00,
2013-02-04 08:22:00,45.0,42.0,30.15,North,3,0.0,0.0,88,0.00,,,0.00,,2013-02-04 13:22:00,
2013-02-04 08:33:00,48.0,45.0,30.16,North,4,0.0,0.0,88,0.00,,,0.00,,2013-02-04 13:33:00,
2013-02-04 08:42:00,48.0,45.0,30.16,North,4,0.0,0.0,88,0.00,,,0.00,,2013-02-04 13:42:00,
2013-02-04 08:52:00,50.0,46.0,30.16,North,4,0.0,0.0,87,0.00,,,0.00,,2013-02-04 13:52:00,
2013-02-04 09:03:00,52.0,48.0,30.16,NNE,12,0.0,4.0,86,0.00,,,0.00,,2013-02-04 14:03:00,
2013-02-04 09:12:00,52.0,48.0,30.16,NNE,12,0.0,4.0,86,0.00,,,0.00,,2013-02-04 14:12:00,
2013-02-04 09:22:00,55.0,49.0,30.16,North,11,1.0,3.0,81,0.00,,,0.00,,2013-02-04 14:22:00,
2013-02-04 09:32:00,58.0,50.0,30.17,NNE,13,0.0,0.0,76,0.00,,,0.00,,2013-02-04 14:32:00,
2013-02-04 09:52:00,58.0,50.0,30.16,NNE,13,1.0,5.0,74,0.00,,,0.00,,2013-02-04 14:52:00,
2013-02-04 10:03:00,59.0,49.0,30.17,NNE,13,1.0,6.0,69,0.00,,,0.00,,2013-02-04 15:03:00,
2013-02-04 10:12:00,59.0,49.0,30.17,NNE,13,1.0,6.0,69,0.00,,,0.00,,2013-02-04 15:12:00,
2013-02-04 10:23:00,61.0,47.0,30.17,NNE,13,3.0,7.0,61,0.00,,,0.00,,2013-02-04 15:23:00,
2013-02-04 10:33:00,61.0,46.0,30.16,NNE,13,2.0,10.0,58,0.00,,,0.00,,2013-02-04 15:33:00,
2013-02-04 10:43:00,61.0,46.0,30.16,NNE,13,2.0,10.0,58,0.00,,,0.00,,2013-02-04 15:43:00,
2013-02-04 10:53:00,63.0,46.0,30.16,NNE,14,4.0,8.0,53,0.00,,,0.00,,2013-02-04 15:53:00,
2013-02-04 11:03:00,63.0,41.0,30.16,NNE,15,4.0,8.0,45,0.00,,,0.00,,2013-02-04 16:03:00,
2013-02-04 11:11:00,63.0,41.0,30.16,NNE,15,4.0,8.0,45,0.00,,,0.00,,2013-02-04 16:11:00,
2013-02-04 11:22:00,64.0,41.0,30.15,NNE,15,3.0,6.0,43,0.00,,,0.00,,2013-02-04 16:22:00,
2013-02-04 11:33:00,65.0,41.0,30.14,NNE,15,3.0,9.0,41,0.00,,,0.00,,2013-02-04 16:33:00,
2013-02-04 11:42:00,65.0,41.0,30.14,NNE,15,3.0,9.0,41,0.00,,,0.00,,2013-02-04 16:42:00,
2013-02-04 11:52:00,66.0,42.0,30.13,SSW,203,1.0,9.0,42,0.00,,,0.00,,2013-02-04 16:52:00,
2013-02-04 12:02:00,67.0,41.0,30.13,SSE,155,3.0,6.0,39,0.00,,,0.00,,2013-02-04 17:02:00,
2013-02-04 12:11:00,67.0,41.0,30.13,SSE,155,3.0,6.0,39,0.00,,,0.00,,2013-02-04 17:11:00,
2013-02-04 12:21:00,67.0,38.0,30.13,South,179,1.0,8.0,35,0.00,,,0.00,,2013-02-04 17:21:00,
2013-02-04 12:32:00,68.0,39.0,30.12,ESE,106,3.0,10.0,34,0.00,,,0.00,,2013-02-04 17:32:00,
2013-02-04 12:42:00,68.0,39.0,30.12,SSW,194,1.0,8.0,34,0.00,,,0.00,,2013-02-04 17:42:00,
2013-02-04 12:52:00,68.0,39.0,30.12,SSW,194,1.0,8.0,34,0.00,,,0.00,,2013-02-04 17:52:00,
2013-02-04 13:03:00,68.0,39.0,30.11,SSE,160,4.0,7.0,34,0.00,,,0.00,,2013-02-04 18:03:00,
2013-02-04 13:11:00,68.0,39.0,30.11,SSE,160,4.0,7.0,34,0.00,,,0.00,,2013-02-04 18:11:00,
2013-02-04 13:22:00,68.0,39.0,30.11,WSW,255,5.0,12.0,34,0.00,,,0.00,,2013-02-04 18:22:00,
2013-02-04 13:32:00,70.0,38.0,30.09,SW,226,1.0,8.0,31,0.00,,,0.00,,2013-02-04 18:32:00,
2013-02-04 13:42:00,70.0,38.0,30.09,SW,226,1.0,8.0,31,0.00,,,0.00,,2013-02-04 18:42:00,
2013-02-04 13:52:00,69.0,37.0,30.08,West,260,0.0,10.0,31,0.00,,,0.00,,2013-02-04 18:52:00,
2013-02-04 14:02:00,70.0,37.0,30.07,SE,135,1.0,6.0,30,0.00,,,0.00,,2013-02-04 19:02:00,
2013-02-04 14:11:00,70.0,37.0,30.07,SE,135,1.0,6.0,30,0.00,,,0.00,,2013-02-04 19:11:00,
2013-02-04 14:22:00,71.0,39.0,30.06,SW,214,0.0,7.0,31,0.00,,,0.00,,2013-02-04 19:22:00,
2013-02-04 14:32:00,71.0,36.0,30.06,South,181,4.0,7.0,28,0.00,,,0.00,,2013-02-04 19:32:00,
2013-02-04 14:42:00,71.0,36.0,30.06,South,181,4.0,7.0,28,0.00,,,0.00,,2013-02-04 19:42:00,
2013-02-04 14:52:00,71.0,34.0,30.05,WSW,246,1.0,7.0,26,0.00,,,0.00,,2013-02-04 19:52:00,
2013-02-04 15:02:00,71.0,32.0,30.05,SW,217,4.0,8.0,24,0.00,,,0.00,,2013-02-04 20:02:00,
2013-02-04 15:12:00,71.0,32.0,30.05,SW,217,4.0,8.0,24,0.00,,,0.00,,2013-02-04 20:12:00,
2013-02-04 15:22:00,71.0,31.0,30.05,West,271,6.0,11.0,23,0.00,,,0.00,,2013-02-04 20:22:00,
2013-02-04 15:32:00,72.0,31.0,30.05,SSW,206,5.0,13.0,22,0.00,,,0.00,,2013-02-04 20:32:00,
2013-02-04 15:42:00,72.0,31.0,30.05,SSW,206,5.0,13.0,22,0.00,,,0.00,,2013-02-04 20:42:00,
2013-02-04 15:52:00,72.0,31.0,30.05,WSW,239,2.0,10.0,22,0.00,,,0.00,,2013-02-04 20:52:00,
2013-02-04 16:02:00,73.0,31.0,30.05,WSW,238,1.0,8.0,21,0.00,,,0.00,,2013-02-04 21:02:00,
2013-02-04 16:11:00,73.0,31.0,30.05,WSW,238,1.0,8.0,21,0.00,,,0.00,,2013-02-04 21:11:00,
2013-02-04 16:22:00,73.0,28.0,30.04,SW,229,2.0,6.0,19,0.00,,,0.00,,2013-02-04 21:22:00,
2013-02-04 16:32:00,73.0,27.0,30.04,WSW,239,2.0,7.0,18,0.00,,,0.00,,2013-02-04 21:32:00,
2013-02-04 16:42:00,73.0,27.0,30.04,WSW,239,2.0,7.0,18,0.00,,,0.00,,2013-02-04 21:42:00,
2013-02-04 16:52:00,72.0,23.0,30.05,West,273,2.0,9.0,16,0.00,,,0.00,,2013-02-04 21:52:00,
2013-02-04 17:03:00,72.0,26.0,30.04,SW,215,0.0,7.0,18,0.00,,,0.00,,2013-02-04 22:03:00,
2013-02-04 17:12:00,72.0,26.0,30.04,SW,215,0.0,7.0,18,0.00,,,0.00,,2013-02-04 22:12:00,
2013-02-04 17:21:00,73.0,28.0,30.05,West,280,0.0,3.0,19,0.00,,,0.00,,2013-02-04 22:21:00,
2013-02-04 17:32:00,73.0,30.0,30.05,NW,305,0.0,4.0,20,0.00,,,0.00,,2013-02-04 22:32:00,
2013-02-04 17:42:00,73.0,30.0,30.05,NW,305,0.0,4.0,20,0.00,,,0.00,,2013-02-04 22:42:00,
2013-02-04 17:52:00,71.0,41.0,30.06,NW,312,1.0,6.0,34,0.00,,,0.00,,2013-02-04 22:52:00,
2013-02-04 18:01:00,69.0,44.0,30.06,NW,316,0.0,5.0,41,0.00,,,0.00,,2013-02-04 23:01:00,
2013-02-04 18:21:00,66.0,45.0,30.06,NW,322,0.0,5.0,46,0.00,,,0.00,,2013-02-04 23:21:00,
2013-02-04 18:32:00,64.0,45.0,30.06,NW,322,0.0,0.0,51,0.00,,,0.00,,2013-02-04 23:32:00,
2013-02-04 18:52:00,62.0,46.0,30.07,NW,322,0.0,0.0,56,0.00,,,0.00,,2013-02-04 23:52:00,
2013-02-04 19:02:00,61.0,47.0,30.07,NW,322,0.0,0.0,59,0.00,,,0.00,,2013-02-05 00:02:00,
2013-02-04 19:11:00,61.0,47.0,30.07,NW,322,0.0,0.0,59,0.00,,,0.00,,2013-02-05 00:11:00,
2013-02-04 19:22:00,60.0,47.0,30.07,NW,322,0.0,0.0,62,0.00,,,0.00,,2013-02-05 00:22:00,
2013-02-04 19:32:00,59.0,47.0,30.07,NW,322,0.0,0.0,64,0.00,,,0.00,,2013-02-05 00:32:00,
2013-02-04 19:42:00,59.0,47.0,30.07,NW,322,0.0,0.0,64,0.00,,,0.00,,2013-02-05 00:42:00,
2013-02-04 19:52:00,58.0,47.0,30.07,NW,322,0.0,0.0,67,0.00,,,0.00,,2013-02-05 00:52:00,
2013-02-04 20:02:00,57.0,47.0,30.08,NW,322,0.0,0.0,68,0.00,,,0.00,,2013-02-05 01:02:00,
2013-02-04 20:12:00,57.0,47.0,30.08,NW,322,0.0,0.0,68,0.00,,,0.00,,2013-02-05 01:12:00,
2013-02-04 20:22:00,56.0,46.0,30.08,NW,322,0.0,0.0,70,0.00,,,0.00,,2013-02-05 01:22:00,
2013-02-04 20:32:00,55.0,46.0,30.09,NW,322,0.0,0.0,72,0.00,,,0.00,,2013-02-05 01:32:00,
2013-02-04 20:42:00,55.0,46.0,30.09,NW,322,0.0,0.0,72,0.00,,,0.00,,2013-02-05 01:42:00,
2013-02-04 20:52:00,55.0,47.0,30.09,NW,322,0.0,0.0,74,0.00,,,0.00,,2013-02-05 01:52:00,
2013-02-04 21:01:00,55.0,47.0,30.08,NW,322,0.0,0.0,74,0.00,,,0.00,,2013-02-05 02:01:00,
2013-02-04 21:11:00,55.0,47.0,30.08,NW,322,0.0,0.0,74,0.00,,,0.00,,2013-02-05 02:11:00,
2013-02-04 21:22:00,55.0,47.0,30.09,NW,322,0.0,0.0,75,0.00,,,0.00,,2013-02-05 02:22:00,
2013-02-04 21:32:00,54.0,47.0,30.09,NW,322,0.0,0.0,76,0.00,,,0.00,,2013-02-05 02:32:00,
2013-02-04 21:42:00,54.0,47.0,30.09,NW,322,0.0,0.0,76,0.00,,,0.00,,2013-02-05 02:42:00,
2013-02-04 21:52:00,53.0,47.0,30.09,NW,322,0.0,0.0,79,0.00,,,0.00,,2013-02-05 02:52:00,
2013-02-04 22:02:00,52.0,46.0,30.09,NW,322,0.0,0.0,80,0.00,,,0.00,,2013-02-05 03:02:00,
2013-02-04 22:11:00,52.0,46.0,30.09,NW,322,0.0,0.0,80,0.00,,,0.00,,2013-02-05 03:11:00,
2013-02-04 22:21:00,52.0,46.0,30.09,NW,322,0.0,0.0,81,0.00,,,0.00,,2013-02-05 03:21:00,
2013-02-04 22:32:00,51.0,46.0,30.09,NW,322,0.0,0.0,82,0.00,,,0.00,,2013-02-05 03:32:00,
2013-02-04 22:42:00,51.0,46.0,30.09,NW,322,0.0,0.0,82,0.00,,,0.00,,2013-02-05 03:42:00,
2013-02-04 22:52:00,50.0,45.0,30.09,NW,322,0.0,0.0,82,0.00,,,0.00,,2013-02-05 03:52:00,
2013-02-04 23:01:00,50.0,45.0,30.09,NW,322,0.0,0.0,83,0.00,,,0.00,,2013-02-05 04:01:00,
2013-02-04 23:11:00,50.0,45.0,30.09,NW,322,0.0,0.0,83,0.00,,,0.00,,2013-02-05 04:11:00,
2013-02-04 23:22:00,50.0,45.0,30.10,NW,322,0.0,0.0,83,0.00,,,0.00,,2013-02-05 04:22:00,
2013-02-04 23:32:00,50.0,45.0,30.10,NW,322,0.0,0.0,84,0.00,,,0.00,,2013-02-05 04:32:00,
2013-02-04 23:42:00,50.0,45.0,30.10,NW,322,0.0,0.0,84,0.00,,,0.00,,2013-02-05 04:42:00,
2013-02-04 23:52:00,52.0,47.0,30.10,NW,322,0.0,0.0,83,0.00,,,0.00,,2013-02-05 04:52:00,